#timestamp,LO_Frequency,Hit,StdDev 
1505203215.3,286047003.9,N,793.8
1505203235.1,286047002.2,N,780.5
1505203255.9,286046999.9,N,767.8
1505203275.7,286047002.3,N,767.8
1505203295.5,286047001.3,N,2.2
1505203315.4,286047002.2,N,2.1
1505203335.2,286047001.7,N,2.1
1505203355.0,286047001.7,N,1.2
1505203356.0,286047001.7,N,1.2
1505203375.8,286047001.5,N,1.2
1505203395.6,286047002.8,N,1.2
1505203415.5,286047002.2,N,1.2
1505203435.3,286047002.5,N,1.2
1505203455.2,286047003.9,Y,0.0
1505203475.9,286047002.4,P,0.1
1505203495.7,286047000.3,N,0.9
1505203515.6,286047000.9,N,0.9
1505203535.4,286046998.6,N,1.4
1505203555.2,286047000.4,N,1.3
1505203575.1,286046999.9,N,1.2
1505203576.0,286046999.9,N,1.2
1505203595.8,286047000.3,N,1.1
1505203615.7,286047002.5,N,1.2
1505203635.5,286047001.6,N,1.2
1505203655.4,286047001.9,N,1.2
1505203675.2,286047002.6,N,1.2
1505203695.0,286047002.2,N,1.2
1505203695.9,286047002.2,N,1.2
1505203715.8,286047001.0,N,1.2
1505203735.6,286047000.9,N,1.1
1505203755.4,286047000.1,N,1.1
1505203775.3,286047002.6,N,1.1
1505203795.1,286047002.4,N,1.1
1505203815.9,286043290.6,Y,0.0
1505203835.7,286047000.9,P,0.2
1505203855.6,286047000.0,N,0.5
1505203875.4,286047001.0,N,0.5
1505203895.2,286047001.1,N,0.4
1505203915.1,286047001.2,N,0.4
1505203916.0,286047001.2,N,0.4
1505203935.8,286047001.2,N,0.4
1505203955.7,286046998.2,Y,0.0
1505203975.5,286046998.8,P,1.1
1505203995.3,286046998.2,N,1.2
1505204015.2,286047001.1,N,1.3
1505204035.0,286047000.9,N,1.2
1505204035.9,286047000.9,N,1.2
1505204055.8,286047000.5,N,1.1
1505204075.6,286046998.3,N,1.2
1505204095.4,286046998.5,N,1.2
1505204115.3,286046998.9,N,1.2
1505204135.1,286046998.9,N,1.2
1505204155.9,286046998.3,N,1.2
1505204175.7,286046999.4,N,1.1
1505204195.5,286046999.0,N,1.1
1505204215.4,286046999.3,N,1.1
1505204235.2,286046998.4,N,1.1
1505204255.1,286047001.2,N,1.1
1505204256.0,286047001.2,N,1.1
1505204275.8,286047000.0,N,1.1
1505204295.6,286047000.4,N,1.1
1505204315.5,286046999.7,N,1.1
1505204335.3,286047002.1,N,1.2
1505204355.2,286047002.6,N,1.3
1505204375.9,286047001.9,N,1.3
1505204395.7,286047003.7,N,1.5
1505204415.6,286047002.2,N,1.5
1505204435.4,286047002.7,N,1.6
1505204455.3,286046999.7,N,1.5
1505204475.1,286047002.6,N,1.6
1505204476.0,286047002.6,N,1.6
1505204495.8,286046999.7,N,1.6
1505204515.7,286046999.8,N,1.6
1505204535.5,286047002.2,N,1.5
1505204555.4,286047002.5,N,1.6
1505204575.2,286046999.9,N,1.6
1505204595.0,286047002.3,N,1.6
1505204595.9,286047002.3,N,1.6
1505204615.8,286047011.9,Y,0.0
1505204635.6,286047000.3,P,0.2
1505204655.5,286046999.9,N,0.3
1505204675.3,286047000.9,N,0.4
1505204695.1,286047001.0,N,0.4
1505204715.9,286047000.8,N,0.4
1505204735.7,286046998.4,Y,0.0
1505204755.6,286047001.2,P,0.3
1505204775.4,286046998.4,P,1.2
1505204795.2,286046998.8,N,1.2
1505204815.1,286046998.2,N,1.2
1505204816.0,286046998.2,N,1.2
1505204835.8,286046998.2,N,1.2
1505204855.7,286046998.6,N,1.1
1505204875.5,286046998.3,N,1.1
1505204895.3,286046998.7,N,1.0
1505204915.2,286046999.5,N,1.0
1505204935.0,286046999.2,N,0.9
1505204935.9,286046999.2,N,0.9
1505204955.8,286046996.6,Y,0.0
1505204975.6,286047001.1,P,1.0
1505204995.4,286046998.1,N,1.3
1505205015.3,286046998.8,N,1.1
1505205035.1,286047001.2,N,1.3
1505205055.9,286046998.2,N,1.3
1505205075.7,286046998.3,N,1.2
1505205095.5,286046998.3,N,1.2
1505205115.4,286046998.9,N,1.1
1505205135.2,286046998.3,N,1.1
1505205155.1,286046998.6,N,1.1
1505205156.0,286046998.6,N,1.0
1505205175.8,286047001.2,N,1.1
1505205195.7,286047000.8,N,1.2
1505205215.5,286046998.4,N,1.2
1505205235.3,286047001.0,N,1.2
1505205255.2,286047000.9,N,1.2
1505205275.0,286046999.8,N,1.2
1505205275.9,286046999.8,N,1.2
1505205295.7,286046999.9,N,1.1
1505205315.6,286047001.2,N,1.2
1505205335.4,286046999.9,N,1.2
1505205355.3,286046999.9,N,1.1
1505205375.1,286047000.8,N,1.1
1505205395.8,286046999.9,N,1.1
1505205415.7,286047000.4,N,1.1
1505205435.5,286047000.4,N,1.1
1505205455.4,286047000.9,N,1.1
1505205475.2,286047001.0,N,1.1
1505205495.0,286047001.0,N,1.1
1505205495.9,286047001.0,N,1.1
1505205515.8,286046999.9,N,1.1
1505205535.6,286047000.5,N,1.0
1505205555.5,286047000.8,N,1.0
1505205575.3,286046998.3,N,1.1
1505205595.1,286046998.6,N,1.0
1505205615.9,286047000.3,N,1.0
1505205635.7,286047000.6,N,0.9
1505205655.6,286047000.3,N,0.9
1505205675.4,286047000.3,N,0.9
1505205695.2,286046999.8,N,0.8
1505205715.1,286047001.6,N,0.8
1505205716.0,286047001.6,N,0.8
1505205735.8,286047002.7,Y,0.0
1505205755.7,286047002.4,P,1.0
1505205775.5,286047002.4,N,1.0
1505205795.3,286047002.6,N,0.9
1505205815.2,286047000.2,N,1.1
1505205835.0,286047001.2,N,1.0
1505205835.9,286047001.2,N,0.9
1505205855.8,286046999.9,N,1.0
1505205875.6,286047002.7,N,1.1
1505205895.4,286047002.8,N,1.1
1505205915.3,286047002.5,N,1.1
1505205935.1,286047001.6,N,1.0
1505205955.9,286047001.8,N,1.0
1505205975.7,286047003.9,Y,0.0
1505205995.5,286047002.1,P,0.2
1505206015.4,286047000.3,N,0.8
1505206035.2,286047000.4,N,0.8
1505206055.1,286046999.8,N,0.9
1505206056.0,286046999.8,N,0.9
1505206075.8,286046999.7,N,0.9
1505206095.6,286047001.2,N,0.9
1505206115.5,286047000.9,N,0.8
1505206135.3,286046998.4,N,1.0
1505206155.2,286047000.8,N,1.0
1505206175.9,286046998.6,N,1.1
1505206195.7,286046998.5,N,1.1
1505206215.6,286047001.2,N,1.1
1505206235.4,286046998.4,N,1.2
1505206255.3,286046998.1,N,1.2
1505206275.1,286046998.3,N,1.3
1505206295.8,286046999.2,N,1.2
1505206315.7,286046996.7,N,1.4
1505206335.5,286046998.7,N,1.4
1505206355.4,286046999.0,N,1.4
1505206375.2,286046997.2,N,1.4
1505206395.0,286046997.2,N,1.5
1505206395.9,286046997.2,N,1.5
1505206415.8,286046994.9,Y,0.0
1505206435.6,286046994.9,P,2.2
1505206455.5,286046995.3,N,2.0
1505206475.3,286046995.5,N,1.8
1505206495.1,286046995.4,N,1.6
1505206515.9,286046996.2,N,1.5
1505206535.7,286046996.1,N,1.4
1505206555.6,286046993.8,Y,0.0
1505206575.4,286046998.3,P,1.1
1505206595.2,286046998.4,N,1.1
1505206615.1,286046999.4,N,1.2
1505206616.0,286046999.4,N,1.2
1505206635.8,286046998.4,N,1.1
1505206655.7,286046996.5,Y,0.0
1505206675.5,286047000.9,P,1.3
1505206695.4,286046998.2,N,1.2
1505206715.2,286047001.1,N,1.4
1505206735.0,286046998.5,N,1.3
1505206735.9,286046998.5,N,1.2
1505206755.8,286046999.1,N,1.1
1505206775.6,286046996.5,Y,0.0
1505206795.5,286046998.9,P,0.2
